Time,TemperatureF,DewpointF,PressureIn,WindDirection,WindDirectionDegrees,WindSpeedMPH,WindSpeedGustMPH,Humidity,HourlyPrecipIn,Conditions,Clouds,dailyrainin,SoftwareType,DateUTC
2013-03-05 00:09:00,51.0,29.8,26.88,ENE,67,0.0,10.0,44,0.00,,,0.00,Weather View 32 v70,2013-03-05 07:09:00,
2013-03-05 00:19:00,51.0,29.8,26.87,NNE,22,3.0,10.0,44,0.00,,,0.00,Weather View 32 v70,2013-03-05 07:19:00,
2013-03-05 00:29:00,51.0,29.8,26.88,North,360,3.0,10.0,44,0.00,,,0.00,Weather View 32 v70,2013-03-05 07:29:00,
2013-03-05 00:39:00,51.0,30.4,26.88,North,360,0.0,10.0,45,0.00,,,0.00,Weather View 32 v70,2013-03-05 07:39:00,
2013-03-05 00:47:00,51.0,30.4,26.88,North,360,0.0,10.0,45,0.00,,,0.00,Weather View 32 v70,2013-03-05 07:47:00,
2013-03-05 00:59:00,51.0,29.2,26.88,North,360,0.0,7.0,43,0.00,,,0.00,Weather View 32 v70,2013-03-05 07:59:00,
2013-03-05 01:09:00,51.0,29.8,26.88,SE,135,0.0,7.0,44,0.00,,,0.00,Weather View 32 v70,2013-03-05 08:09:00,
2013-03-05 01:19:00,51.0,29.8,26.88,North,360,0.0,7.0,44,0.00,,,0.00,Weather View 32 v70,2013-03-05 08:19:00,
2013-03-05 01:29:00,50.0,29.5,26.89,NNW,337,0.0,5.0,45,0.00,,,0.00,Weather View 32 v70,2013-03-05 08:29:00,
2013-03-05 01:39:00,50.0,29.5,26.88,NW,315,3.0,8.0,45,0.00,,,0.00,Weather View 32 v70,2013-03-05 08:39:00,
2013-03-05 01:48:00,50.0,29.5,26.88,NW,315,3.0,8.0,45,0.00,,,0.00,Weather View 32 v70,2013-03-05 08:48:00,
2013-03-05 01:59:00,51.0,29.8,26.88,North,360,2.0,8.0,44,0.00,,,0.00,Weather View 32 v70,2013-03-05 08:59:00,
2013-03-05 02:09:00,51.0,29.2,26.88,North,360,0.0,8.0,43,0.00,,,0.00,Weather View 32 v70,2013-03-05 09:09:00,
2013-03-05 02:19:00,51.0,29.2,26.88,North,360,0.0,8.0,43,0.00,,,0.00,Weather View 32 v70,2013-03-05 09:19:00,
2013-03-05 02:29:00,51.0,30.4,26.88,ENE,67,0.0,8.0,45,0.00,,,0.00,Weather View 32 v70,2013-03-05 09:29:00,
2013-03-05 02:39:00,50.0,28.3,26.87,NNE,22,0.0,8.0,43,0.00,,,0.00,Weather View 32 v70,2013-03-05 09:39:00,
2013-03-05 02:49:00,50.0,28.3,26.87,NNE,22,0.0,8.0,43,0.00,,,0.00,Weather View 32 v70,2013-03-05 09:49:00,
2013-03-05 02:59:00,49.0,28.0,26.87,NNW,337,0.0,6.0,44,0.00,,,0.00,Weather View 32 v70,2013-03-05 09:59:00,
2013-03-05 03:09:00,49.0,28.5,26.87,NW,315,0.0,5.0,45,0.00,,,0.00,Weather View 32 v70,2013-03-05 10:09:00,
2013-03-05 03:19:00,48.0,27.6,26.87,NW,315,0.0,0.0,45,0.00,,,0.00,Weather View 32 v70,2013-03-05 10:19:00,
2013-03-05 03:29:00,48.0,27.1,26.87,NW,315,0.0,0.0,44,0.00,,,0.00,Weather View 32 v70,2013-03-05 10:29:00,
2013-03-05 03:39:00,48.0,28.2,26.87,NNE,22,0.0,0.0,46,0.00,,,0.00,Weather View 32 v70,2013-03-05 10:39:00,
2013-03-05 03:49:00,48.0,29.2,26.87,NE,45,0.0,0.0,48,0.00,,,0.00,Weather View 32 v70,2013-03-05 10:49:00,
2013-03-05 03:59:00,48.0,29.2,26.87,NE,45,0.0,0.0,48,0.00,,,0.00,Weather View 32 v70,2013-03-05 10:59:00,
2013-03-05 04:09:00,48.0,29.2,26.87,NE,45,0.0,0.0,48,0.00,,,0.00,Weather View 32 v70,2013-03-05 11:09:00,
2013-03-05 04:19:00,48.0,28.7,26.87,NNE,22,0.0,0.0,47,0.00,,,0.00,Weather View 32 v70,2013-03-05 11:19:00,
2013-03-05 04:29:00,48.0,28.7,26.87,North,360,0.0,0.0,47,0.00,,,0.00,Weather View 32 v70,2013-03-05 11:29:00,
2013-03-05 04:39:00,48.0,28.7,26.87,NE,45,0.0,3.0,47,0.00,,,0.00,Weather View 32 v70,2013-03-05 11:39:00,
2013-03-05 04:50:00,49.0,29.6,26.87,NE,45,0.0,4.0,47,0.00,,,0.00,Weather View 32 v70,2013-03-05 11:50:00,
2013-03-05 04:59:00,49.0,28.5,26.87,NE,45,0.0,4.0,45,0.00,,,0.00,Weather View 32 v70,2013-03-05 11:59:00,
2013-03-05 05:09:00,50.0,29.5,26.87,NE,45,0.0,4.0,45,0.00,,,0.00,Weather View 32 v70,2013-03-05 12:09:00,
2013-03-05 05:19:00,50.0,28.9,26.87,NNE,22,3.0,6.0,44,0.00,,,0.00,Weather View 32 v70,2013-03-05 12:19:00,
2013-03-05 05:29:00,50.0,28.9,26.87,North,360,1.0,6.0,44,0.00,,,0.00,Weather View 32 v70,2013-03-05 12:29:00,
2013-03-05 05:39:00,49.0,28.5,26.87,NNE,22,0.0,6.0,45,0.00,,,0.00,Weather View 32 v70,2013-03-05 12:39:00,
2013-03-05 05:49:00,49.0,28.5,26.88,NNE,22,0.0,6.0,45,0.00,,,0.00,Weather View 32 v70,2013-03-05 12:49:00,
2013-03-05 05:59:00,48.0,28.2,26.87,North,360,0.0,6.0,46,0.00,,,0.00,Weather View 32 v70,2013-03-05 12:59:00,
2013-03-05 06:09:00,48.0,28.7,26.87,NNE,22,0.0,6.0,47,0.00,,,0.00,Weather View 32 v70,2013-03-05 13:09:00,
2013-03-05 06:19:00,48.0,28.7,26.88,SE,135,0.0,6.0,47,0.00,,,0.00,Weather View 32 v70,2013-03-05 13:19:00,
2013-03-05 06:29:00,47.0,28.3,26.87,NE,45,0.0,4.0,48,0.00,,,0.00,Weather View 32 v70,2013-03-05 13:29:00,
2013-03-05 06:39:00,47.0,28.3,26.87,West,270,0.0,4.0,48,0.00,,,0.00,Weather View 32 v70,2013-03-05 13:39:00,
2013-03-05 06:49:00,47.0,28.8,26.87,ENE,67,0.0,4.0,49,0.00,,,0.00,Weather View 32 v70,2013-03-05 13:49:00,
2013-03-05 06:59:00,47.0,29.3,26.87,NE,45,0.0,4.0,50,0.00,,,0.00,Weather View 32 v70,2013-03-05 13:59:00,
2013-03-05 07:09:00,47.0,29.3,26.88,ESE,112,0.0,4.0,50,0.00,,,0.00,Weather View 32 v70,2013-03-05 14:09:00,
2013-03-05 07:19:00,47.0,29.3,26.88,SE,135,0.0,4.0,50,0.00,,,0.00,Weather View 32 v70,2013-03-05 14:19:00,
2013-03-05 07:29:00,46.0,29.3,26.88,NE,45,0.0,4.0,52,0.00,,,0.00,Weather View 32 v70,2013-03-05 14:29:00,
2013-03-05 07:39:00,46.0,29.3,26.88,NE,45,0.0,4.0,52,0.00,,,0.00,Weather View 32 v70,2013-03-05 14:39:00,
2013-03-05 07:49:00,46.0,30.3,26.89,NE,45,0.0,1.0,54,0.00,,,0.00,Weather View 32 v70,2013-03-05 14:49:00,
2013-03-05 07:59:00,46.0,30.3,26.89,NE,45,0.0,1.0,54,0.00,,,0.00,Weather View 32 v70,2013-03-05 14:59:00,
2013-03-05 08:09:00,47.0,30.7,26.89,NE,45,0.0,1.0,53,0.00,,,0.00,Weather View 32 v70,2013-03-05 15:09:00,
2013-03-05 08:19:00,49.0,31.1,26.89,NE,45,0.0,1.0,50,0.00,,,0.00,Weather View 32 v70,2013-03-05 15:19:00,
2013-03-05 08:29:00,50.0,32.1,26.89,NE,45,0.0,1.0,50,0.00,,,0.00,Weather View 32 v70,2013-03-05 15:29:00,
2013-03-05 08:39:00,51.0,32.0,26.90,NNW,337,0.0,1.0,48,0.00,,,0.00,Weather View 32 v70,2013-03-05 15:39:00,
2013-03-05 08:49:00,52.0,33.4,26.89,NNW,337,0.0,1.0,49,0.00,,,0.00,Weather View 32 v70,2013-03-05 15:49:00,
2013-03-05 08:59:00,54.0,34.7,26.89,NNW,337,0.0,0.0,48,0.00,,,0.00,Weather View 32 v70,2013-03-05 15:59:00,
2013-03-05 09:09:00,57.0,32.9,26.89,SSW,202,0.0,0.0,40,0.00,,,0.00,Weather View 32 v70,2013-03-05 16:09:00,
2013-03-05 09:19:00,60.0,34.3,26.88,South,180,0.0,0.0,38,0.00,,,0.00,Weather View 32 v70,2013-03-05 16:19:00,
2013-03-05 09:29:00,62.0,32.5,26.87,SSW,202,0.0,0.0,33,0.00,,,0.00,Weather View 32 v70,2013-03-05 16:29:00,
2013-03-05 09:39:00,65.0,33.6,26.86,South,180,0.0,0.0,31,0.00,,,0.00,Weather View 32 v70,2013-03-05 16:39:00,
2013-03-05 09:49:00,66.0,31.9,26.85,South,180,0.0,0.0,28,0.00,,,0.00,Weather View 32 v70,2013-03-05 16:49:00,
2013-03-05 09:59:00,68.0,32.7,26.85,South,180,0.0,0.0,27,0.00,,,0.00,Weather View 32 v70,2013-03-05 16:59:00,
2013-03-05 10:09:00,68.0,32.7,26.85,West,270,0.0,0.0,27,0.00,,,0.00,Weather View 32 v70,2013-03-05 17:09:00,
2013-03-05 10:19:00,69.0,31.6,26.84,WNW,292,0.0,0.0,25,0.00,,,0.00,Weather View 32 v70,2013-03-05 17:19:00,
2013-03-05 10:29:00,69.0,30.6,26.84,SW,225,0.0,0.0,24,0.00,,,0.00,Weather View 32 v70,2013-03-05 17:29:00,
2013-03-05 10:39:00,70.0,32.5,26.84,SW,225,0.0,0.0,25,0.00,,,0.00,Weather View 32 v70,2013-03-05 17:39:00,
2013-03-05 10:49:00,71.0,32.3,26.83,SSE,157,0.0,0.0,24,0.00,,,0.00,Weather View 32 v70,2013-03-05 17:49:00,
2013-03-05 10:59:00,72.0,31.0,26.83,East,90,0.0,0.0,22,0.00,,,0.00,Weather View 32 v70,2013-03-05 17:59:00,
2013-03-05 11:19:00,73.0,29.5,26.81,SSE,157,0.0,6.0,20,0.00,,,0.00,Weather View 32 v70,2013-03-05 18:19:00,
2013-03-05 11:29:00,74.0,30.3,26.80,South,180,0.0,6.0,20,0.00,,,0.00,Weather View 32 v70,2013-03-05 18:29:00,
2013-03-05 11:39:00,75.0,31.1,26.80,West,270,0.0,6.0,20,0.00,,,0.00,Weather View 32 v70,2013-03-05 18:39:00,
2013-03-05 11:49:00,75.0,28.5,26.79,South,180,4.0,6.0,18,0.00,,,0.00,Weather View 32 v70,2013-03-05 18:49:00,
2013-03-05 11:59:00,76.0,29.3,26.80,South,180,6.0,7.0,18,0.00,,,0.00,Weather View 32 v70,2013-03-05 18:59:00,
2013-03-05 12:09:00,76.0,29.3,26.79,SSE,157,5.0,7.0,18,0.00,,,0.00,Weather View 32 v70,2013-03-05 19:09:00,
2013-03-05 12:19:00,76.0,29.3,26.79,SE,135,0.0,7.0,18,0.00,,,0.00,Weather View 32 v70,2013-03-05 19:19:00,
2013-03-05 12:29:00,77.0,30.1,26.78,SSW,202,3.0,7.0,18,0.00,,,0.00,Weather View 32 v70,2013-03-05 19:29:00,
2013-03-05 12:39:00,77.0,30.1,26.77,SW,225,0.0,8.0,18,0.00,,,0.00,Weather View 32 v70,2013-03-05 19:39:00,
2013-03-05 12:49:00,78.0,29.5,26.76,SW,225,1.0,8.0,17,0.00,,,0.00,Weather View 32 v70,2013-03-05 19:49:00,
2013-03-05 12:54:00,78.0,29.5,26.76,SW,225,1.0,8.0,17,0.00,,,0.00,Weather View 32 v70,2013-03-05 19:54:00,
2013-03-05 13:09:00,79.0,30.4,26.75,WNW,292,0.0,8.0,17,0.00,,,0.00,Weather View 32 v70,2013-03-05 20:09:00,
2013-03-05 13:19:00,79.0,28.9,26.75,SW,225,0.0,8.0,16,0.00,,,0.00,Weather View 32 v70,2013-03-05 20:19:00,
2013-03-05 13:29:00,78.0,28.1,26.74,SSW,202,0.0,8.0,16,0.00,,,0.00,Weather View 32 v70,2013-03-05 20:29:00,
2013-03-05 13:39:00,79.0,28.9,26.74,SSW,202,0.0,7.0,16,0.00,,,0.00,Weather View 32 v70,2013-03-05 20:39:00,
2013-03-05 13:49:00,80.0,29.7,26.73,NW,315,0.0,7.0,16,0.00,,,0.00,Weather View 32 v70,2013-03-05 20:49:00,
2013-03-05 13:55:00,80.0,29.7,26.73,NW,315,0.0,7.0,16,0.00,,,0.00,Weather View 32 v70,2013-03-05 20:55:00,
2013-03-05 14:09:00,80.0,28.1,26.72,NW,315,0.0,7.0,15,0.00,,,0.00,Weather View 32 v70,2013-03-05 21:09:00,
2013-03-05 14:19:00,81.0,28.9,26.71,WNW,292,0.0,7.0,15,0.00,,,0.00,Weather View 32 v70,2013-03-05 21:19:00,
2013-03-05 14:29:00,81.0,27.2,26.71,SW,225,0.0,7.0,14,0.00,,,0.00,Weather View 32 v70,2013-03-05 21:29:00,
2013-03-05 14:39:00,81.0,27.2,26.71,South,180,0.0,6.0,14,0.00,,,0.00,Weather View 32 v70,2013-03-05 21:39:00,
2013-03-05 14:49:00,81.0,27.2,26.71,North,360,0.0,7.0,14,0.00,,,0.00,Weather View 32 v70,2013-03-05 21:49:00,
2013-03-05 14:55:00,81.0,27.2,26.71,North,360,0.0,7.0,14,0.00,,,0.00,Weather View 32 v70,2013-03-05 21:55:00,
2013-03-05 15:09:00,80.0,26.4,26.71,NE,45,0.0,7.0,14,0.00,,,0.00,Weather View 32 v70,2013-03-05 22:09:00,
2013-03-05 15:19:00,79.0,28.9,26.71,SSW,202,0.0,7.0,16,0.00,,,0.00,Weather View 32 v70,2013-03-05 22:19:00,
2013-03-05 15:29:00,78.0,28.1,26.71,SW,225,4.0,7.0,16,0.00,,,0.00,Weather View 32 v70,2013-03-05 22:29:00,
2013-03-05 15:39:00,77.0,27.3,26.71,South,180,3.0,10.0,16,0.00,,,0.00,Weather View 32 v70,2013-03-05 22:39:00,
2013-03-05 15:49:00,76.0,26.5,26.72,South,180,4.0,10.0,16,0.00,,,0.00,Weather View 32 v70,2013-03-05 22:49:00,
2013-03-05 15:56:00,76.0,26.5,26.72,South,180,4.0,10.0,16,0.00,,,0.00,Weather View 32 v70,2013-03-05 22:56:00,
2013-03-05 16:09:00,74.0,24.9,26.72,SSW,202,5.0,10.0,16,0.00,,,0.00,Weather View 32 v70,2013-03-05 23:09:00,
2013-03-05 16:19:00,74.0,27.7,26.72,SSW,202,0.0,10.0,18,0.00,,,0.00,Weather View 32 v70,2013-03-05 23:19:00,
2013-03-05 16:29:00,74.0,27.7,26.72,SSW,202,0.0,10.0,18,0.00,,,0.00,Weather View 32 v70,2013-03-05 23:29:00,
2013-03-05 16:39:00,73.0,25.5,26.72,SSE,157,4.0,10.0,17,0.00,,,0.00,Weather View 32 v70,2013-03-05 23:39:00,
2013-03-05 16:49:00,73.0,26.9,26.72,SSE,157,0.0,10.0,18,0.00,,,0.00,Weather View 32 v70,2013-03-05 23:49:00,
2013-03-05 16:56:00,73.0,26.9,26.72,SSE,157,0.0,10.0,18,0.00,,,0.00,Weather View 32 v70,2013-03-05 23:56:00,
2013-03-05 17:09:00,72.0,26.1,26.72,South,180,4.0,10.0,18,0.00,,,0.00,Weather View 32 v70,2013-03-06 00:09:00,
2013-03-05 17:19:00,71.0,26.6,26.72,SSW,202,0.0,10.0,19,0.00,,,0.00,Weather View 32 v70,2013-03-06 00:19:00,
2013-03-05 17:29:00,70.0,25.8,26.72,SSW,202,0.0,10.0,19,0.00,,,0.00,Weather View 32 v70,2013-03-06 00:29:00,
2013-03-05 17:39:00,70.0,27.0,26.72,SSE,157,0.0,10.0,20,0.00,,,0.00,Weather View 32 v70,2013-03-06 00:39:00,
2013-03-05 17:49:00,70.0,27.0,26.73,SSE,157,0.0,10.0,20,0.00,,,0.00,Weather View 32 v70,2013-03-06 00:49:00,
2013-03-05 17:57:00,70.0,27.0,26.73,SSE,157,0.0,10.0,20,0.00,,,0.00,Weather View 32 v70,2013-03-06 00:57:00,
2013-03-05 18:09:00,69.0,28.5,26.74,NW,315,0.0,10.0,22,0.00,,,0.00,Weather View 32 v70,2013-03-06 01:09:00,
2013-03-05 18:19:00,68.0,28.7,26.75,NW,315,0.0,5.0,23,0.00,,,0.00,Weather View 32 v70,2013-03-06 01:19:00,
2013-03-05 18:29:00,67.0,28.9,26.76,NW,315,0.0,0.0,24,0.00,,,0.00,Weather View 32 v70,2013-03-06 01:29:00,
2013-03-05 18:39:00,66.0,29.1,26.76,NNW,337,0.0,0.0,25,0.00,,,0.00,Weather View 32 v70,2013-03-06 01:39:00,
2013-03-05 18:49:00,66.0,30.1,26.77,North,360,0.0,0.0,26,0.00,,,0.00,Weather View 32 v70,2013-03-06 01:49:00,
2013-03-05 18:57:00,66.0,30.1,26.77,North,360,0.0,0.0,26,0.00,,,0.00,Weather View 32 v70,2013-03-06 01:57:00,
2013-03-05 19:09:00,65.0,30.1,26.77,North,360,0.0,2.0,27,0.00,,,0.00,Weather View 32 v70,2013-03-06 02:09:00,
2013-03-05 19:19:00,64.0,31.0,26.77,NNE,22,0.0,2.0,29,0.00,,,0.00,Weather View 32 v70,2013-03-06 02:19:00,
2013-03-05 19:29:00,63.0,30.2,26.77,NE,45,2.0,5.0,29,0.00,,,0.00,Weather View 32 v70,2013-03-06 02:29:00,
2013-03-05 19:39:00,62.0,30.1,26.77,NNE,22,4.0,7.0,30,0.00,,,0.00,Weather View 32 v70,2013-03-06 02:39:00,
2013-03-05 19:49:00,62.0,30.1,26.77,NNE,22,3.0,7.0,30,0.00,,,0.00,Weather View 32 v70,2013-03-06 02:49:00,
2013-03-05 19:58:00,62.0,30.1,26.77,NNE,22,3.0,7.0,30,0.00,,,0.00,Weather View 32 v70,2013-03-06 02:58:00,
2013-03-05 20:09:00,61.0,29.3,26.79,NNE,22,0.0,7.0,30,0.00,,,0.00,Weather View 32 v70,2013-03-06 03:09:00,
2013-03-05 20:19:00,60.0,28.4,26.79,East,90,0.0,7.0,30,0.00,,,0.00,Weather View 32 v70,2013-03-06 03:19:00,
2013-03-05 20:29:00,60.0,29.2,26.80,NE,45,0.0,7.0,31,0.00,,,0.00,Weather View 32 v70,2013-03-06 03:29:00,
2013-03-05 20:39:00,60.0,29.2,26.80,NE,45,0.0,7.0,31,0.00,,,0.00,Weather View 32 v70,2013-03-06 03:39:00,
2013-03-05 20:49:00,59.0,28.3,26.81,NE,45,0.0,6.0,31,0.00,,,0.00,Weather View 32 v70,2013-03-06 03:49:00,
2013-03-05 20:58:00,59.0,28.3,26.81,NE,45,0.0,6.0,31,0.00,,,0.00,Weather View 32 v70,2013-03-06 03:58:00,
2013-03-05 21:09:00,59.0,29.9,26.81,North,360,0.0,0.0,33,0.00,,,0.00,Weather View 32 v70,2013-03-06 04:09:00,
2013-03-05 21:19:00,59.0,29.9,26.81,North,360,0.0,4.0,33,0.00,,,0.00,Weather View 32 v70,2013-03-06 04:19:00,
2013-03-05 21:29:00,59.0,29.9,26.81,NE,45,0.0,4.0,33,0.00,,,0.00,Weather View 32 v70,2013-03-06 04:29:00,
2013-03-05 21:39:00,59.0,30.6,26.81,South,180,0.0,4.0,34,0.00,,,0.00,Weather View 32 v70,2013-03-06 04:39:00,
2013-03-05 21:49:00,58.0,29.7,26.82,South,180,0.0,4.0,34,0.00,,,0.00,Weather View 32 v70,2013-03-06 04:49:00,
2013-03-05 21:59:00,58.0,29.7,26.82,South,180,0.0,4.0,34,0.00,,,0.00,Weather View 32 v70,2013-03-06 04:59:00,
2013-03-05 22:09:00,58.0,29.7,26.83,NNE,22,0.0,4.0,34,0.00,,,0.00,Weather View 32 v70,2013-03-06 05:09:00,
2013-03-05 22:19:00,58.0,29.7,26.82,NNE,22,0.0,4.0,34,0.00,,,0.00,Weather View 32 v70,2013-03-06 05:19:00,
2013-03-05 22:29:00,58.0,29.7,26.83,NNE,22,0.0,0.0,34,0.00,,,0.00,Weather View 32 v70,2013-03-06 05:29:00,
2013-03-05 22:39:00,58.0,30.4,26.82,North,360,0.0,0.0,35,0.00,,,0.00,Weather View 32 v70,2013-03-06 05:39:00,
2013-03-05 22:49:00,57.0,30.3,26.82,North,360,0.0,0.0,36,0.00,,,0.00,Weather View 32 v70,2013-03-06 05:49:00,
2013-03-05 23:00:00,58.0,31.1,26.82,NE,45,0.0,4.0,36,0.00,,,0.00,Weather View 32 v70,2013-03-06 06:00:00,
2013-03-05 23:09:00,57.0,30.3,26.82,NE,45,0.0,4.0,36,0.00,,,0.00,Weather View 32 v70,2013-03-06 06:09:00,
2013-03-05 23:19:00,57.0,29.6,26.81,North,360,0.0,4.0,35,0.00,,,0.00,Weather View 32 v70,2013-03-06 06:19:00,
2013-03-05 23:29:00,57.0,30.3,26.82,North,360,0.0,4.0,36,0.00,,,0.00,Weather View 32 v70,2013-03-06 06:29:00,
2013-03-05 23:39:00,57.0,30.3,26.81,North,360,0.0,4.0,36,0.00,,,0.00,Weather View 32 v70,2013-03-06 06:39:00,
2013-03-05 23:49:00,57.0,30.3,26.81,NNE,22,0.0,4.0,36,0.00,,,0.00,Weather View 32 v70,2013-03-06 06:49:00,
2013-03-05 23:59:00,57.0,30.3,26.81,North,360,0.0,0.0,36,0.00,,,0.00,Weather View 32 v70,2013-03-06 06:59:00,